Probability
0 0 0 0 0 0 0 0 0 0 0 0 0 0 0 0 1 0 1 2 3 3 3 3 3 2 4 4 2 0 0 0 0 0 0 0 0 0 0 0 0 0 0 0 0 0 0 0 0
0 0 0 0 0 0 0 0 0 0 0 0 0 0 0 0 1 0 0 1 3 3 3 3 3 3 4 5 3 1 0 0 0 0 0 0 0 0 0 0 0 0 0 0 0 0 0 0 0
0 0 0 0 0 0 0 0 0 0 0 0 0 0 0 0 0 0 0 1 2 3 3 3 3 3 4 5 5 3 1 0 0 0 0 0 0 0 0 0 0 0 0 0 0 0 0 0 1
0 0 0 0 0 0 0 0 0 0 0 0 0 0 0 0 0 0 0 0 1 3 3 3 3 3 3 4 4 3 1 0 0 0 0 0 0 0 0 0 0 0 0 0 0 0 0 0 1
0 0 0 0 0 0 0 0 0 0 0 0 0 0 0 0 0 0 0 0 1 2 3 3 3 3 3 2 3 3 2 1 0 0 0 0 0 0 0 0 0 0 0 0 0 0 0 0 1
0 0 0 0 0 0 0 0 0 0 0 0 0 0 0 0 0 0 0 0 0 1 2 3 3 3 2 1 1 2 2 1 0 0 0 0 0 0 0 0 1 1 0 0 0 0 0 0 0
0 0 0 0 0 0 0 0 0 0 0 0 0 0 0 0 0 0 0 0 0 0 1 3 3 3 2 0 0 1 1 1 0 0 0 0 0 0 0 0 1 1 1 1 1 2 2 1 1
0 0 0 0 0 0 0 0 0 0 0 0 0 0 0 0 0 1 2 1 1 0 1 2 3 3 2 1 0 0 0 0 0 0 0 0 0 0 0 0 1 1 1 1 2 3 3 2 1
0 0 0 0 0 0 0 0 0 0 0 0 0 0 0 0 1 2 3 2 1 0 0 1 3 3 2 1 0 0 0 0 0 0 0 0 0 0 0 0 0 0 0 1 2 3 3 2 1
0 0 0 0 0 0 0 0 0 0 0 0 0 0 0 0 1 2 2 1 1 0 0 1 2 3 1 0 0 0 0 0 0 0 0 0 0 0 0 0 0 0 0 0 1 1 2 1 0
0 0 0 0 0 0 0 0 0 0 0 0 1 1 1 1 1 2 1 0 0 0 0 1 2 2 1 0 0 0 0 0 0 0 0 0 0 0 0 0 0 0 0 0 0 0 1 1 0
0 0 0 0 0 0 0 0 0 0 0 0 1 2 2 2 3 2 1 0 0 0 0 0 1 1 1 0 0 0 0 0 0 0 0 0 0 0 0 0 0 0 0 0 0 0 0 1 1
0 0 0 0 0 0 0 0 0 0 0 0 0 1 3 3 3 3 2 1 0 0 0 0 0 0 0 0 0 0 0 0 0 0 0 0 0 0 0 0 0 0 0 0 0 0 0 0 0
0 0 0 0 0 0 0 0 0 0 0 0 0 1 2 3 3 3 2 1 0 0 0 0 0 0 0 0 0 0 0 0 0 0 0 0 0 0 0 0 0 0 0 0 0 0 0 0 0
0 0 0 0 0 0 0 0 0 0 0 0 0 1 2 3 3 3 2 1 0 0 0 0 0 0 0 0 0 0 0 0 0 0 0 0 0 0 0 0 0 0 0 0 0 0 0 0 0
0 0 0 0 0 0 0 0 0 0 0 0 0 1 2 3 3 3 2 1 0 0 0 0 0 0 0 0 0 1 1 1 0 0 0 0 0 0 0 0 0 0 0 0 0 0 0 0 0
0 0 0 0 0 0 0 0 0 0 0 0 0 0 1 3 3 2 1 0 0 0 0 0 0 0 0 0 0 1 2 1 0 0 0 0 0 0 0 0 0 0 0 0 0 0 0 0 0
0 0 0 0 0 0 0 0 0 0 0 0 0 0 1 2 2 1 0 0 0 0 0 0 0 0 0 0 0 1 2 1 0 0 0 0 0 0 0 0 0 0 0 0 0 0 0 0 0
0 0 0 0 0 0 0 0 0 0 0 0 0 0 0 1 1 0 0 0 0 0 0 0 0 0 0 0 0 1 1 1 0 0 0 0 0 0 0 0 0 0 0 0 0 0 0 0 0
0 0 0 0 0 0 0 0 0 0 0 0 0 0 0 0 1 0 0 0 0 0 0 0 0 0 0 0 0 0 0 0 0 0 0 0 0 0 0 0 0 0 0 0 0 0 0 0 0
0 0 0 0 0 0 0 0 0 0 0 0 0 0 0 0 0 0 0 0 0 0 0 0 0 0 0 0 0 0 0 0 0 0 0 0 0 0 0 0 0 0 0 0 0 0 0 0 0
0 0 0 0 0 0 0 0 0 0 0 0 0 0 0 0 0 0 0 0 0 0 0 0 0 1 1 0 0 0 0 0 0 0 0 0 0 0 0 0 0 0 0 0 0 0 0 0 0
0 0 0 0 0 0 0 0 0 0 0 0 0 0 0 0 0 0 0 0 0 0 0 0 0 1 1 0 0 0 0 0 0 0 0 0 0 0 0 0 0 0 0 0 0 0 0 0 0
0 0 0 0 0 0 0 0 0 0 0 0 0 0 0 0 0 0 0 0 0 0 0 0 0 1 1 0 0 0 0 0 0 0 0 0 0 0 0 0 0 0 0 0 0 0 0 0 0
0 0 0 0 0 0 0 0 0 0 0 0 0 0 0 0 0 0 0 0 0 0 0 0 0 0 0 0 0 0 0 0 0 0 0 0 0 0 0 0 0 0 0 0 0 0 0 0 0
0 0 0 0 0 0 0 0 0 0 0 0 0 0 0 0 0 0 0 0 0 0 0 0 0 0 0 0 0 0 0 0 0 0 0 0 0 0 0 0 0 0 0 0 0 0 0 0 0
0 0 0 0 0 0 0 0 0 0 0 0 0 0 0 0 0 0 0 0 0 0 0 0 0 0 0 0 0 0 0 0 0 0 0 0 0 0 0 0 0 0 0 0 0 0 0 0 0
0 0 0 0 0 0 0 0 0 0 0 0 0 0 0 0 0 0 0 0 0 0 0 0 0 0 0 0 0 0 0 0 0 0 0 0 0 0 0 0 0 0 0 0 0 0 0 0 0
0 0 0 0 0 0 0 0 0 0 0 0 0 0 0 0 0 0 0 0 0 0 0 0 0 0 0 0 0 0 0 0 0 0 0 0 0 0 0 0 0 0 0 0 0 0 0 0 0
0 0 0 0 0 0 0 0 0 0 0 0 0 0 0 0 0 0 0 0 0 0 0 0 0 0 0 0 0 0 0 0 0 0 0 0 0 0 0 0 0 0 0 0 0 0 0 0 0
Wind_Speed
10 6 1 4 5 4 1 2 1 1 1 1 2 6 7 4 3 4 2 3 4 5 4 4 5 6 7 7 8 8 8 8 8 8 8 8 8 8 9 9 9 9 9 10 10 10 10 10 10
4 3 4 5 5 1 2 2 1 0 1 2 4 5 6 4 3 5 2 2 4 5 4 4 5 7 7 7 7 7 8 8 8 8 8 8 8 8 8 8 8 8 8 8 9 9 10 9 10
3 1 4 4 3 3 3 2 2 1 3 2 4 5 4 2 2 3 1 4 5 4 3 4 6 7 7 7 7 7 8 8 8 8 8 8 8 8 8 7 7 8 8 8 8 8 9 9 9
2 4 5 4 2 2 3 2 3 3 3 4 4 5 3 2 1 2 4 5 5 4 3 4 6 7 7 7 7 7 7 7 7 7 7 7 7 7 7 7 7 7 7 7 7 7 8 8 8
4 4 4 1 2 2 1 1 2 2 2 2 4 4 1 2 3 5 5 5 6 3 3 4 6 6 7 7 7 7 6 6 6 6 6 6 6 6 6 6 6 6 6 6 6 7 7 7 7
4 4 4 2 3 1 1 1 1 2 1 1 3 4 1 1 2 3 4 5 5 4 3 3 5 5 5 6 6 6 6 6 6 6 5 6 6 6 5 5 5 5 5 5 5 6 6 6 6
4 4 3 3 2 1 1 1 1 1 1 0 2 4 1 1 1 2 3 4 4 4 4 3 2 3 4 5 4 5 5 5 6 6 6 6 5 5 5 5 5 4 5 5 5 5 5 5 5
4 4 2 1 2 2 1 1 1 2 1 1 2 5 3 4 2 2 3 4 3 3 3 3 2 2 2 2 4 4 4 5 5 5 6 6 6 5 5 4 4 5 5 5 5 5 5 5 5
4 5 2 2 2 2 1 1 2 2 2 2 2 1 2 5 4 4 3 2 2 2 2 3 3 2 2 2 3 3 3 4 5 4 6 5 3 3 3 4 4 4 4 4 4 4 5 5 5
5 3 3 2 2 2 0 0 1 1 2 1 1 2 3 5 5 5 4 4 3 3 2 2 3 3 2 2 2 1 1 2 2 2 3 2 2 2 3 4 5 5 4 4 5 4 4 4 2
3 4 2 0 1 1 1 0 0 2 2 4 4 4 4 4 4 5 5 5 5 4 3 2 3 3 3 2 1 1 1 1 1 2 2 2 2 1 2 1 2 3 3 2 3 3 2 1 1
3 1 1 0 1 1 0 0 1 2 4 3 4 6 6 5 5 5 5 5 4 4 4 3 3 3 3 2 1 1 1 1 1 1 2 2 1 1 1 1 0 1 1 1 1 1 2 2 1
2 1 1 1 2 1 1 1 2 4 4 1 2 4 6 6 5 4 4 4 4 4 4 3 4 4 3 2 2 2 2 2 1 1 1 2 1 1 1 1 0 0 0 0 1 1 2 2 1
2 2 1 1 0 1 1 2 2 6 3 2 3 5 6 7 6 5 4 4 5 5 4 3 4 4 4 3 2 2 2 2 2 1 1 1 2 1 1 1 1 0 0 0 0 1 1 2 1
3 3 3 1 0 0 1 5 5 6 1 2 4 5 6 6 6 7 6 6 6 5 4 4 4 4 4 3 3 2 2 2 2 2 2 1 1 2 1 1 1 1 1 0 0 1 1 2 2
2 3 2 3 0 0 1 6 6 3 3 4 5 5 5 6 6 6 6 6 5 5 5 5 4 4 3 3 3 2 2 2 2 2 1 2 1 2 2 1 1 1 0 0 0 0 1 2 2
3 1 2 3 1 0 1 7 6 3 3 5 5 5 6 6 6 6 6 6 6 6 5 5 4 4 4 3 2 2 2 2 2 2 2 2 2 2 2 2 1 1 0 0 1 0 0 1 2
3 2 2 3 2 0 2 8 10 5 5 6 6 6 6 6 7 6 5 5 5 5 5 5 5 4 3 2 1 1 1 1 2 2 2 2 2 1 1 1 1 1 0 1 1 1 1 1 2
3 2 2 3 2 1 5 9 12 7 5 7 7 6 6 7 5 3 4 4 4 4 4 5 5 4 3 2 2 2 2 2 1 2 2 2 2 2 2 1 1 1 1 2 2 1 1 1 0
2 1 2 3 2 1 4 9 10 6 6 6 6 6 6 4 2 2 3 3 4 5 5 5 5 5 4 3 3 2 2 2 2 1 1 2 2 2 2 2 2 2 1 1 1 1 1 1 0
0 2 2 2 4 3 4 8 6 4 2 3 4 4 4 5 5 4 3 4 4 6 6 6 6 5 5 4 2 1 1 0 0 1 1 1 2 2 2 2 2 2 2 2 2 2 2 2 1
2 2 1 0 2 3 2 5 8 4 4 4 4 4 4 4 4 4 4 4 5 5 5 5 5 5 5 5 4 5 3 3 3 2 2 1 1 1 2 2 2 2 2 2 2 2 2 2 2
3 0 1 1 1 3 2 1 10 4 4 5 5 4 4 4 4 4 4 5 4 3 3 4 4 4 4 5 5 5 4 4 2 1 2 1 1 1 1 1 1 1 1 2 1 2 2 2 2
2 2 3 4 3 2 3 3 8 4 4 4 3 3 3 3 3 3 2 1 2 1 1 2 3 4 4 5 5 6 6 5 4 3 3 2 1 1 1 1 1 1 2 2 2 2 2 2 2
2 4 4 6 4 5 2 2 10 6 5 4 4 3 3 2 2 2 1 1 2 1 2 2 2 3 4 5 6 6 6 6 6 5 4 3 2 2 2 2 2 2 2 2 2 1 2 2 2
1 4 6 4 4 5 3 6 8 5 4 3 3 2 2 2 2 2 3 2 3 3 3 3 3 4 3 4 5 5 5 4 4 4 4 4 3 3 2 2 2 2 2 2 2 1 2 1 2
3 2 3 5 1 2 6 7 9 3 3 2 2 1 2 3 3 3 3 3 3 3 4 4 4 4 4 4 4 4 4 4 4 4 3 3 3 3 3 3 3 2 2 2 2 2 2 2 3
1 4 4 4 2 3 6 6 5 4 4 3 2 3 4 3 3 4 4 4 4 4 4 3 4 4 4 3 3 3 3 4 4 3 4 3 3 3 3 3 3 3 3 2 2 2 2 3 3
3 2 3 3 4 4 4 8 7 6 4 4 4 4 4 4 4 4 4 3 3 3 3 3 3 3 3 3 3 3 3 3 3 3 3 3 3 3 3 3 3 3 3 3 3 3 3 3 4
4 5 6 5 4 4 3 10 5 4 3 3 4 4 4 4 3 3 3 2 3 3 3 4 4 4 4 3 3 3 3 2 3 3 3 3 3 3 3 3 3 3 3 3 4 4 4 4 4
Wind_Direction
331 324 44 58 59 58 203 256 197 34 53 19 59 87 95 88 107 139 141 123 118 133 137 127 113 116 113 107 108 109 107 104 100 97 93 89 86 83 82 80 79 76 74 73 68 66 65 62 64
324 335 56 62 89 114 258 261 180 273 164 105 61 75 80 74 67 106 116 122 122 130 132 127 117 114 112 107 108 114 114 108 103 100 97 92 89 82 82 81 79 75 72 72 70 68 66 64 63
317 30 78 77 111 173 207 230 188 108 54 72 67 54 82 97 100 133 154 131 113 116 128 132 121 119 113 107 107 113 116 113 108 104 99 94 90 83 81 80 77 74 71 69 68 69 68 66 63
49 50 59 80 156 221 208 221 182 128 47 44 93 77 65 24 131 142 128 121 110 107 114 129 120 119 114 108 104 112 116 113 110 104 100 97 92 84 79 77 76 75 70 68 67 69 70 66 63
62 78 76 81 227 234 260 268 144 114 101 41 95 107 91 360 64 112 118 120 120 114 113 122 109 112 114 110 106 103 107 107 105 101 100 96 90 85 79 76 77 74 69 66 64 66 67 64 60
59 72 99 198 235 251 297 309 128 78 96 63 97 117 147 13 85 117 124 124 127 123 120 122 110 102 104 108 106 102 103 102 100 95 93 93 90 85 79 76 75 73 70 69 63 62 62 60 56
103 104 147 181 214 264 295 349 96 124 109 92 129 124 180 282 202 132 124 120 123 119 115 117 115 110 103 100 99 98 100 101 99 93 85 77 76 76 71 67 69 69 68 64 58 57 55 54 49
120 106 121 174 190 242 291 30 54 91 152 340 109 144 200 219 191 117 110 112 115 116 121 130 118 104 99 104 100 93 98 100 97 88 77 72 69 65 60 54 58 62 60 54 50 47 43 41 38
88 84 160 200 185 217 290 62 10 42 78 32 43 147 184 147 133 112 104 104 118 125 137 148 138 126 121 122 110 98 99 97 95 85 82 76 74 69 58 50 48 51 48 44 42 41 37 33 29
80 129 199 203 180 183 212 118 173 74 45 16 17 34 98 127 143 153 163 170 170 169 167 168 157 151 140 134 112 98 87 97 94 93 88 83 80 68 60 50 47 40 31 25 26 25 22 25 12
95 155 170 129 126 160 158 295 291 154 235 224 216 192 155 152 164 181 188 186 188 180 165 180 170 161 149 143 145 121 88 87 104 107 95 93 83 76 64 59 43 35 31 23 12 8 5 10 1
93 69 121 128 23 66 164 214 313 213 229 228 209 175 161 174 187 198 204 197 186 181 183 174 171 160 162 158 169 155 142 144 137 154 131 117 111 106 118 108 58 37 23 16 8 356 347 355 349
96 109 58 79 71 70 66 261 250 259 255 252 160 163 178 189 203 207 205 204 185 186 190 180 173 165 169 162 180 168 177 177 175 163 155 142 140 152 163 169 136 63 20 11 352 349 339 333 333
126 95 42 0 21 11 12 289 265 263 249 216 189 196 199 199 202 204 206 208 200 194 190 180 182 176 173 171 181 186 191 183 174 173 188 179 171 180 194 201 191 223 235 258 275 295 324 310 296
100 70 5 318 223 229 16 312 247 250 219 228 226 221 216 213 207 208 208 205 201 193 187 184 190 182 177 183 188 181 188 180 186 190 193 185 191 193 196 203 215 226 222 244 299 323 328 319 309
68 57 352 305 311 332 109 272 273 250 205 238 242 237 228 227 220 219 211 202 193 183 187 192 189 183 187 193 195 186 186 184 193 194 193 203 210 205 193 206 232 234 207 178 257 310 325 315 306
39 58 263 301 319 77 178 255 275 272 221 242 247 243 236 238 235 228 213 202 191 189 188 192 191 186 191 195 195 186 185 192 195 196 198 208 213 214 203 206 226 215 217 232 263 292 245 292 305
205 212 245 269 294 75 246 262 276 269 244 250 255 253 245 239 234 221 211 198 189 188 186 191 191 188 183 179 172 177 181 203 201 201 207 208 207 210 216 199 200 188 193 264 260 268 284 257 280
165 173 243 270 278 279 254 269 279 277 253 252 255 251 241 240 239 215 201 187 181 184 187 192 188 186 174 175 181 196 208 212 212 217 214 210 202 200 207 208 190 183 201 228 229 240 275 277 285
124 165 271 297 329 288 284 282 278 266 243 237 237 241 239 244 246 215 195 187 191 190 192 192 188 187 186 191 188 195 188 203 214 227 233 217 201 203 207 200 198 200 210 232 215 210 231 257 204
61 193 226 272 327 335 326 307 296 293 270 268 247 236 233 223 224 218 205 207 200 200 199 197 196 192 194 186 167 164 133 73 228 236 242 240 213 199 203 213 207 198 195 220 223 213 205 238 257
224 219 197 289 12 314 17 305 296 302 308 285 267 252 244 230 220 219 213 213 213 216 205 200 195 195 196 182 181 188 193 209 220 223 230 248 228 211 206 209 210 201 204 218 228 217 215 206 235
195 160 100 70 94 333 328 226 287 321 300 285 271 257 251 230 218 221 217 216 219 217 207 204 195 199 197 192 193 196 205 216 214 211 218 236 235 222 211 209 206 213 215 221 231 234 223 216 219
138 55 50 49 62 323 259 187 281 269 255 284 290 275 260 242 237 239 240 228 235 237 230 212 200 213 206 202 203 202 205 207 205 214 220 231 236 233 230 215 208 226 228 227 233 232 228 229 229
71 83 30 2 4 260 276 220 253 261 254 252 267 272 266 235 228 247 252 249 252 247 248 241 222 231 224 213 214 207 206 204 207 211 212 217 230 237 235 224 220 230 233 228 225 225 240 231 225
182 137 150 194 242 284 303 241 254 269 276 273 267 267 270 256 249 253 249 239 242 244 243 238 237 242 235 224 225 214 203 202 210 209 206 213 222 231 223 216 220 225 228 234 223 225 239 239 239
142 168 160 131 76 295 278 282 297 289 309 309 307 307 274 262 260 259 261 254 251 249 243 234 236 244 239 223 218 213 205 205 212 212 206 213 220 223 212 210 214 220 219 222 222 233 240 238 242
148 143 111 123 149 270 291 275 256 272 266 274 278 269 271 276 269 266 261 255 253 249 250 245 234 240 243 226 216 216 211 211 212 210 214 217 221 215 210 212 215 220 221 219 219 236 244 241 250
152 154 146 137 161 171 265 270 225 222 229 228 244 252 256 257 258 260 265 267 265 265 254 245 242 246 248 236 222 213 217 214 212 218 222 217 213 210 214 217 220 224 227 224 223 236 244 247 257
193 185 159 163 219 200 219 266 260 225 240 226 250 269 275 268 264 268 272 279 282 275 266 252 245 245 245 234 220 215 215 210 218 226 227 215 214 216 217 218 223 230 232 231 228 235 241 242 251